Content
SEND FEEDBACK

Daily
Averages
Monthly
Summary
United States of America

LEMON CREEK, ALASKA


Home > North America > United States > Alaska
Elevation: 1 meter     Latitude: 58 22N     Longitude: 134 35W

WEATHER
 
SELECT A DAY
Number of Records: 194,124;   Date Range: 1/1/95 - 8/28/14
 
SHARE

PRINT THIS DATA

[ ← Previous Day ]
WEATHER ALMANAC - 13 FEBRUARY, 2013
[ Next Day → ]
[ °F ]   °C
Weather ElementAverageHighLow
Temperature1.1 °C2.2 °C (12:53 pm)-0.6 °C (3:53 am)
Dewpoint-0.6 °C0 °C (10:53 am)-1.7 °C (1:53 am)
Humidity89.3 %96 % (3:53 am)82 % (6:53 pm)
Barometer1022.4 hPa1024 hPa (11:53 am)1020 hPa (11:53 pm)
Wind Speed20.3 km/h31.5 km/h (9:53 pm)
Wind Gust44.4 km/h (9:53 pm)
Weather ElementAverage
Visibility12.4 km
Wind DirectionE (92.8 °)

Weather ElementTotal
Precipitation1.52 mm
Heating Degree Days17.6 (Base 18.3)
Averaged from 29 records on 13 February, 2013
WEATHER CONDITIONS BREAKOUT
WIND DIRECTION BREAKOUT
WEATHER BY HOUR - 13 FEBRUARY, 2013
[ °F ]   °C
Local TimeTemperatureDewpointHumidityBarometerVisibilityWind DirectionWind SpeedGust SpeedPrecipitationEventsConditions
1:53 AM0.6 °C-1.7 °C85 %1021.3 hPa16.1 kmEast (80°)13 km/hOvercast
3:39 AM0 °C-1.7 °C88 %1022.4 hPa4 kmEast (80°)13 km/h0 mmSnowLight Snow
3:53 AM-0.6 °C-1.1 °C96 %1022.4 hPa2.4 kmEast (80°)13 km/h0.25 mmSnowLight Snow
4:11 AM-0.6 °C-1.1 °C96 %1022.7 hPa3.2 kmEast (80°)11.1 km/h0.25 mmSnowLight Snow
4:53 AM-0.6 °C-1.1 °C96 %1022.4 hPa3.2 kmENE (70°)13 km/h0.51 mmSnowLight Snow
5:13 AM0 °C-1.7 °C88 %1022.4 hPa6.4 kmENE (70°)13 km/h0 mmSnowLight Snow
5:38 AM0 °C-1.1 °C92 %1022.4 hPa8 kmENE (70°)18.5 km/h0 mmSnowLight Snow
5:53 AM0 °C-1.1 °C92 %1022.4 hPa8 kmEast (80°)18.5 km/h0 mmSnowLight Snow
6:53 AM0.6 °C-0.6 °C92 %1022 hPa14.5 kmEast (80°)20.4 km/h35.2 km/h0 mmSnowLight Snow
7:53 AM0.6 °C-0.6 °C92 %1022.7 hPa12.9 kmEast (80°)14.8 km/h0 mmSnowLight Snow
8:53 AM0.6 °C-0.6 °C92 %1023.4 hPa12.9 kmEast (90°)20.4 km/h0 mmSnowLight Snow
9:16 AM0.6 °C-0.6 °C92 %1023.4 hPa6.4 kmEast (80°)18.5 km/h0 mmSnowLight Snow
9:33 AM0.6 °C-0.6 °C92 %1023.4 hPa9.7 kmEast (80°)16.7 km/h0 mmSnowLight Snow
9:53 AM0.6 °C-0.6 °C92 %1023.4 hPa12.9 kmEast (80°)18.5 km/h0.25 mmSnowLight Snow
10:53 AM1.7 °C0 °C89 %1023.7 hPa16.1 kmEast (100°)22.2 km/h0 mmOvercast
11:53 AM1.7 °C0 °C89 %1024 hPa16.1 kmESE (110°)22.2 km/h0 mmRainLight Rain
12:53 PM2.2 °C0 °C86 %1024 hPa16.1 kmESE (110°)24.1 km/h0 mmOvercast
1:53 PM2.2 °C0 °C86 %1024 hPa16.1 kmESE (110°)22.2 km/hOvercast
2:03 PM2.2 °C0 °C86 %1023.7 hPa16.1 kmESE (110°)24.1 km/hOvercast
2:53 PM2.2 °C0 °C86 %1023.4 hPa16.1 kmESE (110°)24.1 km/hOvercast
3:53 PM2.2 °C0 °C86 %1022.4 hPa16.1 kmESE (110°)24.1 km/h0 mmRainLight Rain
4:53 PM2.2 °C0 °C86 %1022.4 hPa16.1 kmESE (110°)24.1 km/h0 mmOvercast
5:53 PM2.2 °C0 °C86 %1022 hPa16.1 kmESE (110°)24.1 km/h0 mmRainLight Rain
6:53 PM2.2 °C-0.6 °C82 %1022 hPa16.1 kmESE (110°)22.2 km/h0 mmRainLight Rain
7:53 PM2.2 °C-0.6 °C82 %1021.7 hPa16.1 kmEast (100°)24.1 km/h0 mmRainLight Rain
8:53 PM1.7 °C0 °C89 %1022 hPa14.5 kmESE (110°)27.8 km/h0 mmRain-SnowLight Rain
9:53 PM1.7 °C-0.6 °C85 %1020.7 hPa16.1 kmESE (110°)31.5 km/h44.4 km/h0 mmRain-SnowLight Rain
10:53 PM1.1 °C0 °C92 %1020.7 hPa16.1 kmEast (90°)20.4 km/h0 mmRain-SnowLight Snow
11:53 PM0.6 °C0 °C96 %1020 hPa16.1 kmEast (90°)29.6 km/h0.25 mmRain-SnowLight Snow
Hourly data recorded from PAJN, located 0 kilometers away from Lemon Creek, Alaska







STORIES FROM OUR PARTNERS